Location: ??????????
(48.5701°N, 37.7703°E)
Time: 07:26:29
(UTC+00:00)

Daily predictions for brighter satellites

Satellite Brightness Start Highest point End
(mag) Time Altitude Azimuth Time Altitude Azimuth Time Altitude Azimuth
Cosmos 1607 4.1 18:06:26 10° SSW 18:12:27 52° ESE 18:18:25 10° NE
USA 267 4.2 18:07:52 10° ENE 18:12:59 24° SE 18:18:04 10° S
Meteor 2-5 Rocket 3.8 18:08:26 10° S 18:13:51 60° E 18:19:20 10° NNE
SPOT 1/Viking Rocket 3.8 18:11:10 10° S 18:16:17 71° WSW 18:21:27 10° NNW
USA 32 4.4 18:13:13 10° SSE 18:18:11 46° E 18:23:11 10° NNE
USA 245 3.6 18:14:42 10° SSE 18:19:21 63° ENE 18:23:05 10° N
Ariane Rocket 3.2 18:14:46 10° S 18:19:51 77° WSW 18:25:00 10° NNW
NOSS 2-1 (D) 4.2 18:16:17 10° NW 18:20:34 63° NE 18:26:36 10° SE
Cosmos 1954 Rocket 4.1 18:16:14 10° NNW 18:21:32 72° ENE 18:26:46 10° SSE
Cosmos 1455 2.7 18:18:09 10° N 18:21:49 43° ENE 18:25:28 10° SSE
S3M 4.4 18:18:17 10° SSW 18:24:28 69° W 18:30:36 10° N
Cosmos 1980 Rocket 4.3 18:22:23 10° N 18:26:11 18° NE 18:29:57 10° ENE
Cosmos 1697 Rocket 4.1 18:24:37 10° NNW 18:29:25 28° NE 18:34:11 10° ESE
Meteor 2-10 Rocket 4.5 18:25:34 10° NNW 18:30:22 45° W 18:35:07 10° SSW
SPOT 5 2.9 18:28:15 10° SSE 18:32:37 57° ENE 18:36:53 10° N
Cosmos 1536 Rocket 4.5 18:29:21 10° SSE 18:33:09 31° E 18:36:59 10° NNE
Cosmos 2228 4.4 18:31:31 10° NNE 18:35:02 25° ENE 18:38:29 10° SE
H-2A R/B 3.4 18:31:42 10° N 18:35:52 45° WNW 18:40:07 10° SW
IRAS Rocket 4.3 18:31:48 10° NNE 18:37:28 87° ESE 18:43:02 10° SSW
Cosmos 1975 Rocket 3.4 18:34:55 10° SSW 18:39:21 69° W 18:43:47 10° N
Cosmos 1656 4.0 18:34:33 10° NNW 18:39:55 55° ENE 18:45:04 11° SE
CARTOSAT-1 3.9 18:36:26 10° S 18:40:42 64° WSW 18:45:00 10° NNW
ATLAS 5 CENTAUR R/B 4.0 18:30:03 10° NW 18:43:32 51° WSW 18:47:40 10° SSE
Cosmos 1703 4.4 18:40:57 12° SE 18:43:57 27° E 18:47:14 10° NNE
ATLAS 2AS CENTAUR R/B 2.8 18:37:04 10° NW 18:44:16 83° SW 18:50:34 12° SE
Tiangong 2.6 18:41:55 10° WSW 18:44:24 21° S 18:46:11 14° SE
Cosmos 2084 3.1 18:41:26 10° SW 18:45:15 73° SE 18:49:08 10° NE
USA 234 3.9 18:42:26 10° E 18:48:48 56° NNE 18:55:11 10° NW
Spot 2 Rocket 3.5 18:45:39 10° SSE 18:50:44 87° ENE 18:55:53 10° NNW
Meteor 1-24 Rocket 3.8 18:46:30 10° SSW 18:51:48 79° WNW 18:57:16 10° N
Cosmos 1371 Rocket 4.4 18:51:02 10° SSW 18:56:14 67° WNW 19:01:32 10° NNE
Cosmos 1544 Rocket 3.7 18:52:04 10° NNW 18:56:24 72° W 19:00:42 10° S
Cosmos 1452 Rocket 4.0 18:52:00 10° S 18:56:55 42° ESE 19:01:51 10° NE
Lacrosse 5 2.0 18:52:23 10° WNW 18:57:29 69° SW 19:01:46 14° SE
USA 276 2.1 18:55:21 10° SW 18:58:16 49° SSE 19:01:12 10° E
Cosmos 1833 Rocket 3.6 18:54:28 12° SSE 18:58:44 28° ESE 19:03:27 10° NE
Cosmos 2184 Rocket 4.1 18:55:24 10° N 19:01:35 68° E 19:07:03 13° SSE
Terra 1.8 18:59:09 13° SSE 19:03:22 79° ENE 19:08:10 10° NNW
X-37B 0.9 19:06:15 10° WSW 19:08:51 34° S 19:10:31 18° ESE
Cosmos 724 4.2 19:03:45 10° SSW 19:09:32 74° ESE 19:15:20 10° NE
Resurs 01 Rocket 4.1 19:08:47 10° SW 19:11:45 17° W 19:14:44 10° NW
Cosmos 2344 4.5 19:08:38 10° NW 19:17:08 66° NE 19:28:53 10° SE
Helios 1A Rocket 3.6 19:15:23 12° S 19:19:01 49° W 19:23:01 10° NNW
NOSS 2-1 (E) 4.4 19:14:33 10° NW 19:19:08 61° SW 19:24:05 17° SSE
Cosmos 2082 Rocket 3.7 19:19:13 15° SE 19:21:32 19° E 19:25:23 10° ENE
Meteor 2-1 Rocket 4.5 19:16:15 10° N 19:21:41 56° ENE 19:25:42 18° SSE
CZ-4B R/B 4.2 19:21:21 10° NW 19:22:37 12° WNW 19:23:53 10° W
Lacrosse 5 rocket 2.8 19:21:04 10° WNW 19:24:10 23° SW 19:26:25 15° S
Cosmos 1271 Rocket 4.1 19:22:05 10° NNW 19:25:43 35° W 19:29:20 10° SSW
ERS-1 Rocket 3.6 19:23:42 12° S 19:28:14 52° W 19:33:10 10° NNW
RESURS DK-1 2.3 19:30:39 10° NNW 19:34:48 88° ENE 19:37:17 23° SSE
Cosmos 2058 Rocket 4.1 19:34:03 10° N 19:38:04 33° ENE 19:40:32 19° SE
CZ-2C R/B 4.1 19:33:33 10° N 19:38:07 63° WNW 19:42:34 10° SSW
Cosmos 1892 Rocket 4.3 19:39:17 22° SE 19:41:31 38° E 19:45:36 10° NNE
Cosmos 1741 Rocket 4.2 19:36:35 10° NNW 19:41:54 72° WSW 19:45:31 21° S
Cosmos 968 Rocket 4.2 19:38:50 10° NNW 19:43:49 44° ENE 19:47:24 18° SE
ARIANE 5 R/B 3.1 19:40:38 18° S 19:43:51 56° W 19:48:14 10° NNW
Cosmos 1825 4.1 19:49:35 15° ESE 19:50:32 16° E 19:52:52 10° NE
SL-8 R/B 3.6 19:46:57 10° W 19:51:46 71° SSW 19:55:33 16° ESE
ADEOS Rocket 4.4 19:46:35 13° ESE 19:52:21 40° ENE 19:59:19 10° N
GP-B 3.4 19:49:51 10° N 19:54:13 52° E 19:56:27 26° SSE
USA 267 3.2 19:50:09 10° ENE 19:56:43 75° SE 20:03:15 10° SW
COSMOS 2406 3.5 19:55:52 21° S 19:59:29 49° ESE 20:05:02 10° NE
ASTEX 1 3.4 19:55:13 10° N 20:00:15 72° E 20:03:16 24° S
Cosmos 2369 3.9 19:56:44 10° NNW 20:02:29 68° ENE 20:06:14 22° SE
SL-16 R/B 4.1 19:58:59 10° N 20:03:31 24° NE 20:08:01 10° E
Cosmos 962 Rocket 4.5 20:00:55 10° N 20:07:10 84° E 20:11:13 24° S
Nadezhda 1 Rocket 4.2 20:02:34 14° SSW 20:07:55 69° WNW 20:14:00 10° N
Cosmos 1980 Rocket 2.4 20:05:34 10° NNW 20:11:17 70° ENE 20:14:52 23° SE
Cosmos 2228 4.2 20:08:46 10° NNW 20:12:37 34° W 20:15:17 17° SSW
Cosmos 1697 Rocket 2.9 20:08:16 10° NNW 20:13:49 63° WSW 20:17:01 26° S
Cosmos 1606 Rocket 4.2 20:13:17 10° NNW 20:17:26 47° W 20:19:49 23° SSW
Meteor 1-11 4.2 20:15:14 25° S 20:18:37 72° E 20:24:12 10° NNE
SJ 16-02 3.7 20:18:43 10° NNE 20:21:32 16° NE 20:24:19 10° E
Cosmos 1892 2.7 20:21:09 37° SSE 20:22:24 63° E 20:26:08 10° NNE
Cosmos 2084 Rocket 3.2 20:20:34 10° NW 20:24:29 83° NE 20:26:17 32° SE
In-Cosmos 22 Rocket 4.4 20:24:42 27° SSE 20:27:37 57° E 20:33:00 10° NNE
Cosmos 1331 Rocket 4.5 20:24:00 11° SW 20:28:58 61° WNW 20:34:15 10° NNE
USA 234 3.2 20:27:05 21° SE 20:31:43 71° SW 20:38:18 10° WNW
USA 276 2.3 20:30:56 10° W 20:33:56 66° N 20:36:56 10° ENE
ATLAS 2AS CENTAUR R/B 4.4 20:29:28 10° WNW 20:34:05 19° WSW 20:37:59 12° SW
Lacrosse 5 3.8 20:36:53 10° W 20:39:39 15° WSW 20:40:57 14° SW
Terra 4.2 20:39:12 10° WSW 20:41:43 14° W 20:44:15 10° NW
Cosmos 1833 Rocket 3.4 20:36:52 10° SW 20:42:21 53° WNW 20:47:53 10° NNE
Cosmos 1408 2.8 20:41:27 35° SW 20:42:40 58° WNW 20:46:05 10° N
Cosmos 2322 Rocket 3.7 20:37:57 10° NNW 20:42:57 31° NE 20:47:56 10° ESE
X-37B 2.9 20:41:25 10° WSW 20:41:43 12° WSW 20:41:43 12° WSW
SL-8 Rocket 4.1 20:39:19 10° NNW 20:45:34 73° W 20:49:08 27° S
Cosmos 2278 3.8 20:41:29 10° NNW 20:47:15 78° ENE 20:50:32 27° SE
Cosmos 1867 3.5 20:42:08 10° NW 20:47:39 89° SW 20:50:39 28° SE
ATLAS 5 CENTAUR R/B 2.5 20:49:01 24° ESE 20:49:01 24° ESE 20:52:08 10° ENE
FALCON 9 DEB 4.2 20:47:17 10° WNW 20:50:26 44° NNE 20:53:35 10° E
Cosmos 1302 Rocket 4.1 20:51:44 21° SSW 20:55:12 72° WNW 21:00:25 10° NNE
Cosmos 1812 Rocket 3.9 20:51:03 10° N 20:55:30 57° ENE 20:57:18 33° SE
ALOS 2 2.5 20:55:22 37° S 20:57:04 82° WSW 21:01:30 10° NNW
Cosmos 2218 Rocket 4.2 20:51:06 10° NNW 20:57:30 71° W 21:01:07 27° S
Cosmos 2366 rocket 4.2 20:55:05 10° NNW 21:01:21 67° W 21:04:54 27° SSW
Aureole 1 Rocket 4.4 20:57:21 10° NNW 21:04:14 81° ENE 21:09:37 24° SSE
Cosmos 2082 Rocket 2.3 21:01:01 21° SSW 21:04:57 79° WNW 21:10:42 10° NNE
Cosmos 1602 Rocket 3.5 21:08:25 40° S 21:09:53 72° E 21:14:12 10° NNE
H-2A R/B 3.6 21:08:49 10° N 21:13:01 70° WNW 21:14:45 34° SSW
Cosmos 2360 Rocket 3.4 21:17:21 10° NNW 21:22:38 38° NE 21:27:53 10° ESE
Cosmos 1825 3.0 21:24:12 30° WSW 21:25:32 42° WNW 21:29:07 10° N
Cosmos-2242 2.9 21:25:50 10° NNW 21:30:05 81° W 21:31:28 42° S
ERS-2 2.0 21:27:03 10° NNE 21:30:40 85° WNW 21:31:31 50° SSW
Cosmos 1934 Rocket 4.3 21:28:14 10° N 21:34:15 60° ENE 21:37:53 24° SSE
Cosmos 1626 Rocket 4.4 21:33:17 26° SW 21:35:13 43° WNW 21:39:23 10° N
ADEOS Rocket 3.8 21:33:31 26° SSW 21:37:33 54° W 21:45:01 10° NNW
USA 267 4.0 21:33:16 10° NE 21:39:36 54° NNW 21:45:55 10° W
Cosmos 2058 3.1 21:40:13 39° SSE 21:41:31 61° E 21:45:41 10° NNE
Cosmos 1606 2.6 21:38:34 10° NNW 21:42:26 82° W 21:43:26 48° S
Cosmos 1825 Rocket 3.5 21:45:52 40° S 21:47:20 77° E 21:51:41 10° NNE
SL-16 R/B 2.1 21:42:35 10° NNW 21:48:18 80° WSW 21:51:18 29° SSE
CRYOSAT 2 4.3 21:46:13 34° SSE 21:48:23 82° E 21:53:18 10° N
Cosmos 1633 3.4 21:51:28 31° WSW 21:52:23 37° WNW 21:55:41 10° N
Cosmos 1980 Rocket 3.7 21:50:31 10° NW 21:54:43 21° W 21:56:37 18° SW
SL-19 R/B 4.4 21:55:12 37° SE 21:56:29 65° ENE 22:00:31 10° N
Cosmos 1821 Rocket 4.4 21:52:04 10° NNW 21:58:06 51° W 22:01:15 27° SSW
BREEZE-M DEB (TANK) 3.1 21:51:02 10° WSW 21:58:55 90° S 22:01:45 10° ENE
Meteor 2-2 Rocket 4.3 21:53:45 10° NNW 21:59:47 86° W 22:03:05 29° S
SJ 16-02 1.3 21:56:12 10° NNW 22:00:39 75° WSW 22:02:18 38° S
Cosmos 2219 Rocket 3.7 21:57:53 10° NNW 22:03:04 35° NE 22:08:15 10° ESE
Cosmos 1842 Rocket 4.4 21:59:03 10° N 22:03:23 45° ENE 22:05:53 22° SE
BREEZE-M DEB (TANK) 2.9 22:08:28 45° S 22:08:54 49° SSE 22:14:53 10° ENE
CZ-2D R/B 3.8 22:05:04 10° NE 22:09:02 22° E 22:12:16 13° SE
USA 276 1.9 22:06:43 10° WNW 22:09:44 85° N 22:12:45 10° ESE
Cosmos 1605 Rocket 4.2 22:07:32 10° N 22:13:59 75° E 22:18:13 23° SSE
Cosmos 1340 Rocket 2.7 22:13:12 43° S 22:14:26 88° E 22:18:24 10° NNE
Nadezhda 3 Rocket 4.4 22:11:41 24° SW 22:15:16 53° WNW 22:21:18 10° N
USA 234 4.4 22:14:24 21° SW 22:15:31 22° SW 22:20:25 10° WNW
Resurs 1-4 Rocket 3.6 22:13:05 10° NE 22:17:34 27° E 22:20:52 15° SE
Meteor 2-3 Rocket 4.3 22:18:43 23° SSE 22:21:57 47° E 22:27:18 10° NNE
Cosmos 44 4.3 22:20:47 25° SSE 22:22:13 30° ESE 22:26:08 10° ENE
FALCON 9 DEB 3.0 22:23:34 10° WNW 22:26:47 55° SSW 22:26:47 55° SSW
Cosmos 2221 2.4 22:22:26 10° N 22:26:48 83° W 22:28:39 34° S
Cosmos 2322 Rocket 2.4 22:21:46 10° NW 22:27:20 56° WSW 22:30:12 28° S
Cosmos 2333 Rocket 2.6 22:22:34 10° NNW 22:28:20 66° ENE 22:34:04 10° SE
ATLAS 5 CENTAUR R/B 2.4 22:30:25 17° WSW 22:33:03 42° NW 22:37:12 10° NNE
Cosmos 2151 3.8 22:34:34 24° SSE 22:36:43 44° E 22:40:49 10° NNE
Cosmos 1782 3.4 22:32:57 10° N 22:36:53 53° ENE 22:39:09 23° SSE
Geosat 4.2 22:44:17 27° S 22:46:48 52° WSW 22:51:43 10° NW
Cosmos 2082 Rocket 4.4 22:45:56 10° W 22:50:00 19° NW 22:54:03 10° N
MOS 1 Rocket 4.1 22:48:24 12° SE 22:52:59 54° ENE 22:58:08 10° N
ADEOS II 3.4 22:53:46 10° NNE 22:58:27 32° E 23:02:39 12° SSE
Cosmos 2333 4.2 22:52:42 10° NNW 22:58:30 78° WSW 23:03:31 14° SSE
Cosmos 1898 Rocket 4.1 22:54:03 10° NNW 22:59:11 57° ENE 23:04:16 10° SE
NPP 4.3 22:54:44 10° NNE 22:59:59 49° E 23:03:48 18° SSE
MOZ.5/SAFIR/RUBIN 5/SL-8 4.0 23:00:36 26° SSW 23:03:06 55° W 23:07:47 10° NNW
SL-23 DEB 4.3 23:03:08 28° SSE 23:03:35 30° SE 23:06:36 10° E
SL-24 DEB 4.2 23:01:14 23° S 23:04:06 88° E 23:08:43 10° N
Cosmos 1833 4.2 23:01:07 24° SSW 23:04:37 83° WNW 23:10:16 10° NNE
SL-16 R/B 2.8 22:58:28 10° SSE 23:04:42 73° ENE 23:10:58 10° NNW
Cosmos 2360 Rocket 2.6 23:01:22 10° NW 23:06:43 43° WSW 23:09:53 22° SSW
SL-4 R/B 2.0 23:07:39 32° SSW 23:08:57 49° SSE 23:12:43 10° ENE
Cosmos 1812 2.6 23:06:39 10° N 23:10:30 83° W 23:12:38 25° S
Cosmos 1933 3.7 23:09:20 10° NNW 23:13:11 47° W 23:14:59 27° SSW
Cosmos 540 Rocket 4.2 23:09:57 18° S 23:13:26 44° ESE 23:18:19 10° NE
CZ-4 R/B 4.0 23:08:45 10° NNE 23:13:35 69° ESE 23:16:55 21° S
Cosmos 972 4.5 23:09:22 10° NNW 23:14:13 62° WSW 23:17:54 19° S
Cosmos 1937 Rocket 4.1 23:10:18 10° NNW 23:15:32 58° ENE 23:20:40 10° SE
COSMOS 2428 2.9 23:10:08 10° NNW 23:15:53 77° ENE 23:21:36 10° SSE
SL-27 R/B 2.2 23:15:38 32° SSW 23:17:01 80° WNW 23:20:19 10° NNE
COSMOS 2487 2.0 23:19:03 34° SSW 23:20:14 82° WNW 23:23:20 10° NNE
Meteor 1-26 Rocket 4.4 23:16:47 10° NNW 23:22:27 60° W 23:26:48 18° S
COSMOS 2455 4.2 23:20:54 10° NNW 23:26:37 42° NE 23:32:18 10° ESE
Cosmos 2237 Rocket 3.6 23:21:44 10° NNW 23:27:06 40° NE 23:32:24 10° ESE
Cosmos 1076 Rocket 4.2 23:26:19 21° SW 23:28:47 42° WNW 23:32:59 10° N
Cosmos 1727 Rocket 4.2 23:24:24 20° SSW 23:28:58 65° WNW 23:35:16 10° N
Thor Agena Rocket 4.0 23:25:00 10° N 23:30:04 53° WNW 23:33:38 19° SW
SL-16 R/B 4.0 23:28:50 10° WNW 23:31:26 13° W 23:33:07 12° WSW
CENTAUR R/B 3.2 23:29:38 17° S 23:33:57 45° ESE 23:40:30 10° NE
Cosmos 2322 3.7 23:28:39 10° NNW 23:34:17 63° WSW 23:39:51 10° SSE
IDEFIX/ARIANE 42P 3.1 23:29:41 10° NNE 23:34:50 55° E 23:39:24 13° S
Cosmos 1340 3.2 23:31:24 10° N 23:35:05 57° ENE 23:38:44 10° SSE
Cosmos 2297 Rocket 3.9 23:31:13 10° SSE 23:35:44 25° ESE 23:40:16 10° NE
Cosmos 1000 Rocket 4.5 23:38:05 16° SSW 23:43:03 78° W 23:49:14 10° N
Gbstr 26 Del rocket 3.5 23:39:34 15° WSW 23:43:36 80° SSE 23:49:39 10° ENE
Cosmos 1459 Rocket 4.0 23:38:01 10° NNW 23:44:02 68° W 23:49:36 12° S
USA 276 2.9 23:42:38 10° W 23:45:13 26° SSW 23:47:47 10° SSE
Meteor 1-28 Rocket 3.1 23:43:23 12° SSE 23:46:44 86° WSW 23:50:27 10° NNW
Meteor 2-6 Rocket 4.3 23:40:56 10° NNW 23:46:54 77° W 23:52:43 10° S
Cosmos 2219 Rocket 2.5 23:41:46 10° NW 23:47:11 47° WSW 23:52:35 10° S
Cosmos 2100 Rocket 4.2 23:41:59 10° NNW 23:48:14 59° W 23:53:55 13° S
NOSS 3-2 (C) 4.5 23:43:49 11° S 23:48:25 33° ESE 23:53:53 10° NE
CZ-2D R/B 2.3 23:44:22 10° N 23:49:29 59° WNW 23:53:35 16° SW
NOSS 0 Rocket 4.0 23:44:16 10° NNW 23:50:30 85° ENE 23:56:41 10° SSE
Cosmos 1328 Rocket 4.1 23:46:20 10° N 23:50:44 61° ENE 23:55:04 10° SSE
ISS -2.8 23:49:14 20° SSW 23:50:56 34° SE 23:54:02 10° E
